Back to Top

Language: 

My Weather Underground Personal Weather Station Historical Data with Graphs...

Delerius Weather Station Historical Data
Daily Summary for February 19, 2017 Units:  English    Metric   Both
« Previous Day
Next Day »
Daily Weekly Monthly Yearly Custom
  High: Low: Average:
Temperature: 52.0 °F 46.0 °F 49.4 °F
Dew Point: 49.5 °F 42.8 °F 45.8 °F
Humidity: 91 % 82 % 88 %
Wind Speed: 15.0 mph 2.0 mph 7.3 mph
Wind Gust: 20.0 mph - -
Wind:- - West
Pressure: 30.14 in 30.02 in -
Precipitation: 0.00 in    
Historical Graphs
 
 
Tabular Data for February 19, 2017
Time Temperature Dew Point Pressure Wind Wind Speed Wind Gust Humidity Rainfall Rate (Hourly) solar Conditions
00:00 50.0 °F 45.7 °F 30.07 in WSW 10.0 mph 16.0 mph 85 % 0.00 in 0 W/m2
00:05 49.9 °F 45.6 °F 30.07 in WSW 10.0 mph 16.0 mph 85 % 0.00 in 0 W/m2
00:15 49.7 °F 45.7 °F 30.07 in WSW 12.0 mph 18.0 mph 86 % 0.00 in 0 W/m2
00:20 49.7 °F 45.7 °F 30.07 in West 12.0 mph 12.0 mph 86 % 0.00 in 0 W/m2
00:25 49.7 °F 45.7 °F 30.07 in WSW 12.0 mph 13.0 mph 86 % 0.00 in 0 W/m2
00:30 49.7 °F 45.7 °F 30.07 in West 13.0 mph 14.0 mph 86 % 0.00 in 0 W/m2
00:35 49.7 °F 46.0 °F 30.07 in West 13.0 mph 15.0 mph 87 % 0.00 in 0 W/m2
00:45 49.6 °F 45.9 °F 30.05 in West 14.0 mph 14.0 mph 87 % 0.00 in 0 W/m2
00:50 49.6 °F 45.9 °F 30.05 in West 14.0 mph 14.0 mph 87 % 0.00 in 0 W/m2
00:55 49.6 °F 45.9 °F 30.05 in WSW 13.0 mph 14.0 mph 87 % 0.00 in 0 W/m2
01:00 49.5 °F 45.8 °F 30.05 in West 13.0 mph 16.0 mph 87 % 0.00 in 0 W/m2
01:05 49.6 °F 45.6 °F 30.05 in WSW 14.0 mph 20.0 mph 86 % 0.00 in 0 W/m2
01:10 49.6 °F 45.6 °F 30.05 in West 14.0 mph 20.0 mph 86 % 0.00 in 0 W/m2
01:15 49.6 °F 45.3 °F 30.05 in WSW 13.0 mph 20.0 mph 85 % 0.00 in 0 W/m2
01:25 49.5 °F 45.2 °F 30.07 in West 12.0 mph 20.0 mph 85 % 0.00 in 0 W/m2
01:35 49.3 °F 45.0 °F 30.06 in WNW 9.0 mph 18.0 mph 85 % 0.00 in 0 W/m2
01:40 49.3 °F 45.0 °F 30.06 in WNW 11.0 mph 11.0 mph 85 % 0.00 in 0 W/m2
01:45 49.2 °F 44.9 °F 30.06 in WNW 11.0 mph 12.0 mph 85 % 0.00 in 0 W/m2
01:50 49.2 °F 44.9 °F 30.06 in West 11.0 mph 20.0 mph 85 % 0.00 in 0 W/m2
01:55 49.1 °F 45.1 °F 30.05 in West 12.0 mph 20.0 mph 86 % 0.00 in 0 W/m2
02:00 49.1 °F 45.1 °F 30.05 in West 13.0 mph 13.0 mph 86 % 0.00 in 0 W/m2
02:05 49.1 °F 45.1 °F 30.05 in WNW 13.0 mph 14.0 mph 86 % 0.00 in 0 W/m2
02:15 49.1 °F 45.1 °F 30.06 in WSW 12.0 mph 20.0 mph 86 % 0.00 in 0 W/m2
02:20 49.1 °F 45.1 °F 30.06 in West 11.0 mph 20.0 mph 86 % 0.00 in 0 W/m2
02:25 49.1 °F 45.1 °F 30.06 in WNW 10.0 mph 20.0 mph 86 % 0.00 in 0 W/m2
02:30 49.0 °F 44.7 °F 30.06 in NW 9.0 mph 9.0 mph 85 % 0.00 in 0 W/m2
02:35 49.0 °F 44.4 °F 30.06 in West 12.0 mph 15.0 mph 84 % 0.00 in 0 W/m2
02:40 49.0 °F 44.1 °F 30.06 in NW 15.0 mph 15.0 mph 83 % 0.00 in 0 W/m2
02:45 48.9 °F 44.0 °F 30.06 in West 13.0 mph 20.0 mph 83 % 0.00 in 0 W/m2
02:50 48.8 °F 43.5 °F 30.06 in West 13.0 mph 13.0 mph 82 % 0.00 in 0 W/m2
03:00 48.4 °F 43.5 °F 30.06 in West 12.0 mph 12.0 mph 83 % 0.00 in 0 W/m2
03:05 48.2 °F 43.3 °F 30.06 in West 12.0 mph 20.0 mph 83 % 0.00 in 0 W/m2
03:10 48.0 °F 43.1 °F 30.06 in WNW 11.0 mph 11.0 mph 83 % 0.00 in 0 W/m2
03:20 47.8 °F 42.9 °F 30.06 in WNW 11.0 mph 20.0 mph 83 % 0.00 in 0 W/m2
03:25 47.7 °F 42.8 °F 30.06 in NW 10.0 mph 20.0 mph 83 % 0.00 in 0 W/m2
03:35 47.6 °F 43.0 °F 30.07 in WNW 10.0 mph 20.0 mph 84 % 0.00 in 0 W/m2
03:45 47.7 °F 43.1 °F 30.07 in WNW 10.0 mph 20.0 mph 84 % 0.00 in 0 W/m2
03:50 47.7 °F 43.1 °F 30.07 in WNW 8.0 mph 8.0 mph 84 % 0.00 in 0 W/m2
03:55 47.7 °F 43.1 °F 30.07 in WNW 7.0 mph 20.0 mph 84 % 0.00 in 0 W/m2
04:00 47.6 °F 43.0 °F 30.07 in WNW 8.0 mph 8.0 mph 84 % 0.00 in 0 W/m2
04:05 47.6 °F 43.0 °F 30.07 in NW 8.0 mph 20.0 mph 84 % 0.00 in 0 W/m2
04:10 47.5 °F 42.9 °F 30.07 in West 8.0 mph 8.0 mph 84 % 0.00 in 0 W/m2
04:15 47.4 °F 42.8 °F 30.07 in WNW 7.0 mph 20.0 mph 84 % 0.00 in 0 W/m2
04:20 47.4 °F 42.8 °F 30.07 in WNW 7.0 mph 20.0 mph 84 % 0.00 in 0 W/m2
04:30 47.3 °F 43.0 °F 30.07 in WNW 6.0 mph 20.0 mph 85 % 0.00 in 0 W/m2
04:35 47.3 °F 43.0 °F 30.07 in WNW 7.0 mph 20.0 mph 85 % 0.00 in 0 W/m2
04:40 47.3 °F 43.0 °F 30.07 in NW 7.0 mph 7.0 mph 85 % 0.00 in 0 W/m2
04:45 47.3 °F 43.0 °F 30.07 in WNW 7.0 mph 12.0 mph 85 % 0.00 in 0 W/m2
04:50 47.3 °F 43.0 °F 30.08 in WNW 6.0 mph 6.0 mph 85 % 0.00 in 0 W/m2
04:55 47.3 °F 43.0 °F 30.08 in NW 4.0 mph 20.0 mph 85 % 0.00 in 0 W/m2
05:00 47.3 °F 43.0 °F 30.08 in NW 3.0 mph 3.0 mph 85 % 0.00 in 0 W/m2
05:10 47.3 °F 43.0 °F 30.08 in NW 2.0 mph 20.0 mph 85 % 0.00 in 0 W/m2
05:15 47.3 °F 43.0 °F 30.08 in NW 2.0 mph 20.0 mph 85 % 0.00 in 0 W/m2
05:25 47.3 °F 43.3 °F 30.08 in WNW 5.0 mph 20.0 mph 86 % 0.00 in 0 W/m2
05:30 47.2 °F 43.2 °F 30.08 in NW 5.0 mph 20.0 mph 86 % 0.00 in 0 W/m2
05:35 47.2 °F 43.2 °F 30.09 in North 6.0 mph 20.0 mph 86 % 0.00 in 0 W/m2
05:40 47.2 °F 43.2 °F 30.08 in NW 7.0 mph 7.0 mph 86 % 0.00 in 0 W/m2
05:45 47.2 °F 43.2 °F 30.09 in WNW 7.0 mph 9.0 mph 86 % 0.00 in 0 W/m2
05:55 47.2 °F 43.2 °F 30.09 in NW 6.0 mph 20.0 mph 86 % 0.00 in 0 W/m2
06:00 47.1 °F 43.1 °F 30.08 in West 6.0 mph 20.0 mph 86 % 0.00 in 0 W/m2
06:05 47.1 °F 43.1 °F 30.08 in WNW 7.0 mph 20.0 mph 86 % 0.00 in 0 W/m2
06:10 47.1 °F 43.1 °F 30.08 in WNW 9.0 mph 20.0 mph 86 % 0.00 in 0 W/m2
06:15 47.1 °F 43.1 °F 30.09 in WNW 8.0 mph 20.0 mph 86 % 0.00 in 0 W/m2
06:20 47.1 °F 43.1 °F 30.09 in WNW 5.0 mph 20.0 mph 86 % 0.00 in 0 W/m2
06:25 47.1 °F 43.1 °F 30.09 in WNW 5.0 mph 20.0 mph 86 % 0.00 in 0 W/m2
06:30 47.0 °F 43.3 °F 30.09 in WNW 6.0 mph 20.0 mph 87 % 0.00 in 0 W/m2
06:40 46.8 °F 43.4 °F 30.09 in West 6.0 mph 20.0 mph 88 % 0.00 in 0 W/m2
06:50 46.5 °F 43.4 °F 30.09 in WNW 7.0 mph 20.0 mph 89 % 0.00 in 0 W/m2
06:55 46.4 °F 43.6 °F 30.09 in WNW 8.0 mph 20.0 mph 90 % 0.00 in 0 W/m2
07:00 46.2 °F 43.4 °F 30.09 in WNW 8.0 mph 8.0 mph 90 % 0.00 in 0 W/m2
07:05 46.1 °F 43.6 °F 30.10 in NW 6.0 mph 20.0 mph 91 % 0.00 in 0 W/m2
07:10 46.1 °F 43.6 °F 30.10 in WNW 4.0 mph 20.0 mph 91 % 0.00 in 5 W/m2
07:15 46.0 °F 43.5 °F 30.10 in WNW 4.0 mph 20.0 mph 91 % 0.00 in 7 W/m2
07:25 46.0 °F 43.5 °F 30.10 in WNW 6.0 mph 7.0 mph 91 % 0.00 in 9 W/m2
07:30 46.0 °F 43.5 °F 30.10 in West 7.0 mph 20.0 mph 91 % 0.00 in 12 W/m2
07:35 46.1 °F 43.6 °F 30.10 in West 8.0 mph 20.0 mph 91 % 0.00 in 18 W/m2
07:40 46.1 °F 43.6 °F 30.10 in WNW 6.0 mph 6.0 mph 91 % 0.00 in 21 W/m2
07:45 46.1 °F 43.6 °F 30.10 in WNW 5.0 mph 8.0 mph 91 % 0.00 in 25 W/m2
07:50 46.2 °F 43.7 °F 30.10 in West 5.0 mph 20.0 mph 91 % 0.00 in 25 W/m2
07:55 46.3 °F 43.5 °F 30.10 in NW 7.0 mph 20.0 mph 90 % 0.00 in 32 W/m2
08:05 46.4 °F 43.6 °F 30.11 in WNW 8.0 mph 9.0 mph 90 % 0.00 in 37 W/m2
08:10 46.5 °F 43.7 °F 30.11 in West 6.0 mph 20.0 mph 90 % 0.00 in 42 W/m2
08:15 46.5 °F 43.7 °F 30.12 in WNW 6.0 mph 20.0 mph 90 % 0.00 in 53 W/m2
08:20 46.6 °F 43.8 °F 30.12 in West 6.0 mph 20.0 mph 90 % 0.00 in 60 W/m2
08:25 46.8 °F 44.0 °F 30.12 in West 6.0 mph 20.0 mph 90 % 0.00 in 83 W/m2
08:30 46.9 °F 44.1 °F 30.12 in WNW 6.0 mph 20.0 mph 90 % 0.00 in 81 W/m2
08:35 47.1 °F 44.3 °F 30.12 in WNW 8.0 mph 20.0 mph 90 % 0.00 in 79 W/m2
08:45 47.3 °F 44.5 °F 30.12 in WNW 9.0 mph 20.0 mph 90 % 0.00 in 95 W/m2
08:50 47.4 °F 44.3 °F 30.12 in West 9.0 mph 20.0 mph 89 % 0.00 in 91 W/m2
08:55 47.5 °F 44.4 °F 30.12 in West 9.0 mph 20.0 mph 89 % 0.00 in 88 W/m2
09:00 47.6 °F 44.5 °F 30.12 in WNW 9.0 mph 20.0 mph 89 % 0.00 in 93 W/m2
09:05 47.7 °F 44.6 °F 30.12 in WNW 10.0 mph 20.0 mph 89 % 0.00 in 91 W/m2
09:10 47.7 °F 44.6 °F 30.12 in WNW 9.0 mph 9.0 mph 89 % 0.00 in 88 W/m2
09:15 47.8 °F 44.7 °F 30.12 in WNW 9.0 mph 11.0 mph 89 % 0.00 in 77 W/m2
09:25 47.9 °F 44.5 °F 30.13 in West 7.0 mph 10.0 mph 88 % 0.00 in 69 W/m2
09:35 48.0 °F 44.6 °F 30.13 in West 8.0 mph 20.0 mph 88 % 0.00 in 100 W/m2
09:40 48.1 °F 44.7 °F 30.13 in WNW 7.0 mph 7.0 mph 88 % 0.00 in 123 W/m2
09:50 48.7 °F 45.0 °F 30.13 in West 3.0 mph 20.0 mph 87 % 0.00 in 185 W/m2
10:00 49.7 °F 45.7 °F 30.13 in West 6.0 mph 20.0 mph 86 % 0.00 in 246 W/m2
10:05 50.0 °F 45.4 °F 30.13 in West 8.0 mph 20.0 mph 84 % 0.00 in 218 W/m2
10:15 50.3 °F 45.3 °F 30.13 in NW 8.0 mph 20.0 mph 83 % 0.00 in 120 W/m2
10:20 50.1 °F 45.1 °F 30.13 in West 8.0 mph 20.0 mph 83 % 0.00 in 104 W/m2
10:25 49.9 °F 45.3 °F 30.13 in West 8.0 mph 20.0 mph 84 % 0.00 in 104 W/m2
10:35 49.8 °F 45.2 °F 30.13 in WNW 5.0 mph 20.0 mph 84 % 0.00 in 123 W/m2
10:40 49.9 °F 45.6 °F 30.13 in WNW 7.0 mph 7.0 mph 85 % 0.00 in 148 W/m2
10:45 50.0 °F 45.4 °F 30.13 in West 7.0 mph 20.0 mph 84 % 0.00 in 153 W/m2
10:50 50.1 °F 45.5 °F 30.13 in West 8.0 mph 20.0 mph 84 % 0.00 in 127 W/m2
10:55 50.2 °F 45.6 °F 30.13 in West 8.0 mph 20.0 mph 84 % 0.00 in 95 W/m2
11:05 50.0 °F 45.4 °F 30.13 in WNW 9.0 mph 10.0 mph 84 % 0.00 in 153 W/m2
11:10 50.0 °F 45.4 °F 30.13 in WNW 10.0 mph 20.0 mph 84 % 0.00 in 199 W/m2
11:15 50.2 °F 45.6 °F 30.13 in WNW 10.0 mph 20.0 mph 84 % 0.00 in 339 W/m2
11:20 50.5 °F 45.8 °F 30.14 in WNW 10.0 mph 10.0 mph 84 % 0.00 in 153 W/m2
11:25 50.5 °F 45.5 °F 30.14 in WNW 9.0 mph 14.0 mph 83 % 0.00 in 125 W/m2
11:30 50.4 °F 45.4 °F 30.13 in West 10.0 mph 10.0 mph 83 % 0.00 in 127 W/m2
11:35 50.5 °F 45.8 °F 30.13 in WNW 8.0 mph 12.0 mph 84 % 0.00 in 123 W/m2
11:40 50.4 °F 45.7 °F 30.13 in WNW 8.0 mph 20.0 mph 84 % 0.00 in 90 W/m2
11:50 50.3 °F 45.6 °F 30.13 in West 9.0 mph 9.0 mph 84 % 0.00 in 107 W/m2
11:55 50.3 °F 45.6 °F 30.13 in WSW 8.0 mph 20.0 mph 84 % 0.00 in 90 W/m2
12:00 50.2 °F 45.6 °F 30.12 in West 7.0 mph 20.0 mph 84 % 0.00 in 76 W/m2
12:05 50.0 °F 45.7 °F 30.12 in WSW 8.0 mph 20.0 mph 85 % 0.00 in 132 W/m2
12:10 49.9 °F 45.6 °F 30.12 in West 8.0 mph 20.0 mph 85 % 0.00 in 135 W/m2
12:15 50.0 °F 45.7 °F 30.12 in SW 9.0 mph 20.0 mph 85 % 0.00 in 93 W/m2
12:30 50.0 °F 45.7 °F 30.11 in WSW 10.0 mph 10.0 mph 85 % 0.00 in 141 W/m2
12:35 50.0 °F 46.0 °F 30.12 in West 10.0 mph 20.0 mph 86 % 0.00 in 149 W/m2
12:40 50.0 °F 46.0 °F 30.12 in WSW 9.0 mph 20.0 mph 86 % 0.00 in 125 W/m2
12:45 50.0 °F 46.0 °F 30.12 in WNW 10.0 mph 20.0 mph 86 % 0.00 in 153 W/m2
12:50 50.0 °F 46.0 °F 30.11 in West 9.0 mph 9.0 mph 86 % 0.00 in 81 W/m2
12:55 50.0 °F 46.0 °F 30.11 in West 8.0 mph 20.0 mph 86 % 0.00 in 97 W/m2
13:00 50.0 °F 46.0 °F 30.11 in West 7.0 mph 7.0 mph 86 % 0.00 in 79 W/m2
13:10 49.9 °F 45.9 °F 30.11 in West 6.0 mph 20.0 mph 86 % 0.00 in 74 W/m2
13:15 49.9 °F 45.9 °F 30.11 in WSW 6.0 mph 20.0 mph 86 % 0.00 in 76 W/m2
13:20 49.8 °F 45.8 °F 30.10 in West 6.0 mph 20.0 mph 86 % 0.00 in 70 W/m2
13:25 49.9 °F 45.9 °F 30.10 in WSW 7.0 mph 20.0 mph 86 % 0.00 in 91 W/m2
13:30 50.0 °F 46.3 °F 30.10 in WSW 7.0 mph 20.0 mph 87 % 0.00 in 70 W/m2
13:35 49.9 °F 46.2 °F 30.10 in West 6.0 mph 20.0 mph 87 % 0.00 in 69 W/m2
13:40 49.8 °F 46.1 °F 30.10 in West 6.0 mph 20.0 mph 87 % 0.00 in 65 W/m2
13:50 49.8 °F 46.1 °F 30.10 in West 6.0 mph 20.0 mph 87 % 0.00 in 79 W/m2
13:55 49.8 °F 46.1 °F 30.10 in West 7.0 mph 20.0 mph 87 % 0.00 in 79 W/m2
14:05 50.0 °F 46.3 °F 30.10 in West 8.0 mph 8.0 mph 87 % 0.00 in 70 W/m2
14:10 50.0 °F 46.3 °F 30.10 in West 8.0 mph 20.0 mph 87 % 0.00 in 84 W/m2
14:15 50.0 °F 46.3 °F 30.10 in SW 8.0 mph 20.0 mph 87 % 0.00 in 72 W/m2
14:20 50.1 °F 46.4 °F 30.09 in WSW 8.0 mph 20.0 mph 87 % 0.00 in 69 W/m2
14:25 50.1 °F 46.4 °F 30.10 in WSW 7.0 mph 20.0 mph 87 % 0.00 in 58 W/m2
14:35 50.1 °F 46.4 °F 30.09 in WSW 7.0 mph 20.0 mph 87 % 0.00 in 37 W/m2
14:40 50.0 °F 46.3 °F 30.09 in WSW 8.0 mph 20.0 mph 87 % 0.00 in 35 W/m2
14:45 50.0 °F 46.3 °F 30.09 in WNW 7.0 mph 20.0 mph 87 % 0.00 in 42 W/m2
14:50 49.9 °F 46.2 °F 30.09 in West 8.0 mph 20.0 mph 87 % 0.00 in 51 W/m2
14:55 50.0 °F 46.6 °F 30.09 in WNW 8.0 mph 20.0 mph 88 % 0.00 in 60 W/m2
15:00 50.0 °F 46.6 °F 30.09 in West 7.0 mph 7.0 mph 88 % 0.00 in 70 W/m2
15:10 50.3 °F 46.9 °F 30.09 in West 6.0 mph 20.0 mph 88 % 0.00 in 60 W/m2
15:15 50.3 °F 46.9 °F 30.08 in West 7.0 mph 20.0 mph 88 % 0.00 in 63 W/m2
15:20 50.3 °F 46.9 °F 30.08 in WSW 7.0 mph 7.0 mph 88 % 0.00 in 51 W/m2
15:25 50.4 °F 47.0 °F 30.08 in SW 5.0 mph 20.0 mph 88 % 0.00 in 54 W/m2
15:35 50.4 °F 47.0 °F 30.09 in West 6.0 mph 20.0 mph 88 % 0.00 in 46 W/m2
15:40 50.4 °F 47.0 °F 30.09 in WSW 6.0 mph 20.0 mph 88 % 0.00 in 37 W/m2
15:45 50.4 °F 47.0 °F 30.09 in West 6.0 mph 20.0 mph 88 % 0.00 in 30 W/m2
15:50 50.4 °F 47.0 °F 30.08 in WSW 6.0 mph 6.0 mph 88 % 0.00 in 23 W/m2
15:55 50.3 °F 46.9 °F 30.08 in West 5.0 mph 20.0 mph 88 % 0.00 in 21 W/m2
16:00 50.3 °F 46.9 °F 30.09 in WSW 5.0 mph 5.0 mph 88 % 0.00 in 23 W/m2
16:05 50.3 °F 46.9 °F 30.08 in SSW 5.0 mph 20.0 mph 88 % 0.00 in 25 W/m2
16:15 50.3 °F 46.9 °F 30.08 in SW 4.0 mph 20.0 mph 88 % 0.00 in 18 W/m2
16:25 50.4 °F 47.0 °F 30.08 in WSW 4.0 mph 4.0 mph 88 % 0.00 in 11 W/m2
16:30 50.4 °F 47.0 °F 30.08 in SW 3.0 mph 20.0 mph 88 % 0.00 in 11 W/m2
16:35 50.5 °F 47.1 °F 30.08 in West 4.0 mph 20.0 mph 88 % 0.00 in 12 W/m2
16:40 50.5 °F 47.1 °F 30.08 in WSW 5.0 mph 5.0 mph 88 % 0.00 in 16 W/m2
16:55 50.6 °F 47.2 °F 30.07 in SW 3.0 mph 3.0 mph 88 % 0.00 in 9 W/m2
17:05 50.6 °F 47.2 °F 30.07 in SW 4.0 mph 4.0 mph 88 % 0.00 in 5 W/m2
17:10 50.5 °F 47.4 °F 30.06 in WSW 5.0 mph 20.0 mph 89 % 0.00 in 5 W/m2
17:15 50.5 °F 47.4 °F 30.06 in West 5.0 mph 20.0 mph 89 % 0.00 in 0 W/m2
17:20 50.5 °F 47.4 °F 30.06 in SW 6.0 mph 20.0 mph 89 % 0.00 in 0 W/m2
17:25 50.5 °F 47.4 °F 30.07 in West 6.0 mph 20.0 mph 89 % 0.00 in 0 W/m2
17:30 50.4 °F 47.3 °F 30.06 in West 7.0 mph 7.0 mph 89 % 0.00 in 0 W/m2
17:35 50.4 °F 47.3 °F 30.07 in West 6.0 mph 20.0 mph 89 % 0.00 in 0 W/m2
17:50 50.2 °F 47.4 °F 30.06 in West 5.0 mph 5.0 mph 90 % 0.00 in 0 W/m2
17:55 50.1 °F 47.0 °F 30.06 in WSW 6.0 mph 8.0 mph 89 % 0.00 in 0 W/m2
18:00 50.0 °F 47.2 °F 30.06 in WNW 7.0 mph 7.0 mph 90 % 0.00 in 0 W/m2
18:05 49.9 °F 47.1 °F 30.06 in West 6.0 mph 10.0 mph 90 % 0.00 in 0 W/m2
18:10 49.8 °F 47.0 °F 30.06 in SW 7.0 mph 7.0 mph 90 % 0.00 in 0 W/m2
18:15 49.8 °F 47.0 °F 30.06 in WNW 7.0 mph 8.0 mph 90 % 0.00 in 0 W/m2
18:20 49.8 °F 47.0 °F 30.06 in WSW 8.0 mph 8.0 mph 90 % 0.00 in 0 W/m2
18:30 49.8 °F 47.0 °F 30.06 in West 7.0 mph 7.0 mph 90 % 0.00 in 0 W/m2
18:35 49.8 °F 47.0 °F 30.07 in West 7.0 mph 20.0 mph 90 % 0.00 in 0 W/m2
18:40 49.9 °F 47.1 °F 30.07 in WNW 7.0 mph 7.0 mph 90 % 0.00 in 0 W/m2
18:45 49.9 °F 47.4 °F 30.07 in West 6.0 mph 20.0 mph 91 % 0.00 in 0 W/m2
18:50 49.9 °F 47.4 °F 30.07 in WSW 7.0 mph 20.0 mph 91 % 0.00 in 0 W/m2
18:55 50.0 °F 47.2 °F 30.07 in WSW 8.0 mph 20.0 mph 90 % 0.00 in 0 W/m2
19:00 50.0 °F 47.2 °F 30.06 in WSW 7.0 mph 20.0 mph 90 % 0.00 in 0 W/m2
19:05 50.1 °F 47.3 °F 30.06 in SW 7.0 mph 20.0 mph 90 % 0.00 in 0 W/m2
19:10 50.1 °F 47.3 °F 30.06 in SSW 5.0 mph 5.0 mph 90 % 0.00 in 0 W/m2
19:20 50.1 °F 47.3 °F 30.06 in WNW 2.0 mph 2.0 mph 90 % 0.00 in 0 W/m2
19:25 50.1 °F 47.3 °F 30.06 in WSW 3.0 mph 3.0 mph 90 % 0.00 in 0 W/m2
19:30 50.1 °F 47.3 °F 30.06 in West 3.0 mph 20.0 mph 90 % 0.00 in 0 W/m2
19:35 50.1 °F 47.3 °F 30.06 in SW 3.0 mph 20.0 mph 90 % 0.00 in 0 W/m2
19:40 50.1 °F 47.3 °F 30.06 in WSW 4.0 mph 4.0 mph 90 % 0.00 in 0 W/m2
19:45 50.1 °F 47.3 °F 30.05 in West 4.0 mph 20.0 mph 90 % 0.00 in 0 W/m2
19:50 50.1 °F 47.3 °F 30.05 in SW 3.0 mph 20.0 mph 90 % 0.00 in 0 W/m2
20:00 50.2 °F 47.4 °F 30.05 in SSW 2.0 mph 2.0 mph 90 % 0.00 in 0 W/m2
20:05 50.2 °F 47.4 °F 30.04 in South 2.0 mph 20.0 mph 90 % 0.00 in 0 W/m2
20:10 50.2 °F 47.4 °F 30.04 in West 4.0 mph 20.0 mph 90 % 0.00 in 0 W/m2
20:15 50.3 °F 47.5 °F 30.04 in WNW 6.0 mph 20.0 mph 90 % 0.00 in 0 W/m2
20:20 50.3 °F 47.5 °F 30.05 in West 7.0 mph 20.0 mph 90 % 0.00 in 0 W/m2
20:25 50.3 °F 47.8 °F 30.05 in West 9.0 mph 20.0 mph 91 % 0.00 in 0 W/m2
20:30 50.3 °F 47.8 °F 30.05 in West 8.0 mph 8.0 mph 91 % 0.00 in 0 W/m2
20:40 50.3 °F 47.8 °F 30.05 in SW 5.0 mph 5.0 mph 91 % 0.00 in 0 W/m2
20:45 50.3 °F 47.8 °F 30.05 in West 4.0 mph 20.0 mph 91 % 0.00 in 0 W/m2
20:50 50.3 °F 47.8 °F 30.04 in SW 2.0 mph 20.0 mph 91 % 0.00 in 0 W/m2
20:55 50.4 °F 47.9 °F 30.04 in WSW 4.0 mph 20.0 mph 91 % 0.00 in 0 W/m2
21:00 50.6 °F 48.1 °F 30.04 in West 8.0 mph 20.0 mph 91 % 0.00 in 0 W/m2
21:05 50.7 °F 48.2 °F 30.04 in WNW 8.0 mph 20.0 mph 91 % 0.00 in 0 W/m2
21:10 50.7 °F 48.2 °F 30.04 in West 7.0 mph 7.0 mph 91 % 0.00 in 0 W/m2
21:15 50.7 °F 48.2 °F 30.04 in WSW 7.0 mph 20.0 mph 91 % 0.00 in 0 W/m2
21:20 50.8 °F 48.0 °F 30.04 in SW 6.0 mph 20.0 mph 90 % 0.00 in 0 W/m2
21:25 50.8 °F 48.0 °F 30.04 in SW 4.0 mph 20.0 mph 90 % 0.00 in 0 W/m2
21:30 50.8 °F 48.0 °F 30.04 in SW 3.0 mph 20.0 mph 90 % 0.00 in 0 W/m2
21:40 50.9 °F 48.4 °F 30.04 in NW 2.0 mph 20.0 mph 91 % 0.00 in 0 W/m2
21:45 51.1 °F 48.6 °F 30.04 in West 4.0 mph 20.0 mph 91 % 0.00 in 0 W/m2
21:50 51.3 °F 48.8 °F 30.04 in WNW 7.0 mph 7.0 mph 91 % 0.00 in 0 W/m2
21:55 51.4 °F 48.9 °F 30.04 in West 6.0 mph 13.0 mph 91 % 0.00 in 0 W/m2
22:00 51.5 °F 49.0 °F 30.04 in WSW 6.0 mph 20.0 mph 91 % 0.00 in 0 W/m2
22:05 51.6 °F 49.1 °F 30.04 in West 8.0 mph 20.0 mph 91 % 0.00 in 0 W/m2
22:10 51.7 °F 49.2 °F 30.04 in West 8.0 mph 8.0 mph 91 % 0.00 in 0 W/m2
22:20 51.8 °F 49.3 °F 30.04 in WNW 8.0 mph 8.0 mph 91 % 0.00 in 0 W/m2
22:25 51.8 °F 49.3 °F 30.04 in WSW 7.0 mph 20.0 mph 91 % 0.00 in 0 W/m2
22:30 51.8 °F 49.3 °F 30.03 in WNW 6.0 mph 20.0 mph 91 % 0.00 in 0 W/m2
22:35 51.9 °F 49.4 °F 30.04 in West 8.0 mph 20.0 mph 91 % 0.00 in 0 W/m2
22:40 51.9 °F 49.1 °F 30.04 in West 8.0 mph 20.0 mph 90 % 0.00 in 0 W/m2
22:45 51.8 °F 49.0 °F 30.04 in West 6.0 mph 20.0 mph 90 % 0.00 in 0 W/m2
22:50 51.8 °F 49.0 °F 30.04 in West 5.0 mph 20.0 mph 90 % 0.00 in 0 W/m2
22:55 51.8 °F 49.0 °F 30.04 in WSW 5.0 mph 20.0 mph 90 % 0.00 in 0 W/m2
23:05 51.8 °F 49.0 °F 30.04 in WSW 6.0 mph 20.0 mph 90 % 0.00 in 0 W/m2
23:15 51.8 °F 49.3 °F 30.03 in SW 3.0 mph 6.0 mph 91 % 0.00 in 0 W/m2
23:20 51.9 °F 49.4 °F 30.03 in WSW 5.0 mph 5.0 mph 91 % 0.00 in 0 W/m2
23:25 51.9 °F 49.4 °F 30.02 in WSW 7.0 mph 8.0 mph 91 % 0.00 in 0 W/m2
23:30 51.8 °F 49.3 °F 30.02 in WSW 7.0 mph 20.0 mph 91 % 0.00 in 0 W/m2
23:35 51.9 °F 49.4 °F 30.02 in West 8.0 mph 20.0 mph 91 % 0.00 in 0 W/m2
23:45 52.0 °F 49.5 °F 30.02 in West 8.0 mph 20.0 mph 91 % 0.00 in 0 W/m2
23:50 52.0 °F 49.5 °F 30.02 in West 6.0 mph 6.0 mph 91 % 0.00 in 0 W/m2
23:55 52.0 °F 49.5 °F 30.02 in West 6.0 mph 20.0 mph 91 % 0.00 in 0 W/m2
Delerius-Weather
Compliments of Weather Underground - 2 mb

Data updates at regular intervals.